Regional Weather Roundup
Issued by NWS

Home | Current Version | Previous Version | Graphics & Text | Print | Product List | Glossary Off
Versions: 1 2 3 4 5 6 7 8 9 10 11 12 13 14 15 16 17 18 19 20 21 22 23 24 25 26 27 28 29 30 31 32 33 34 35 36 37 38 39 40 41 42 43 44 45 46 47 48 49 50

000
ASUS43 KMKX 151800
RWRWI

WISCONSIN REGIONAL WEATHER ROUNDUP
NATIONAL WEATHER SERVICE MILWAUKEE/SULLIVAN WI
100 PM CDT MON SEP 15 2014

NOTE: "FAIR" INDICATES FEW OR NO CLOUDS BELOW 12,000 FEET WITH NO
SIGNIFICANT WEATHER AND/OR OBSTRUCTIONS TO VISIBILITY.

WIZ001-002-006>008-014>016-023>028-151900-
NORTHWEST WISCONSIN

CITY           SKY/WX    TMP DP  RH WIND       PRES   REMARKS
SUPERIOR ARPT  CLOUDY    54  37  51 NW8       30.19S
ASHLAND        MOSUNNY   57  37  47 NW8G17    30.17S
6HR MIN TEMP:  42; 6HR MAX TEMP:  59;

HAYWARD        MOSUNNY   57  32  38 VRB7G20   30.18S
6HR MIN TEMP:  38; 6HR MAX TEMP:  57;

SIREN          PTSUNNY   59  34  39 N15G21    30.19F
RICE LAKE      PTSUNNY   58  38  47 NW9       30.20R
LADYSMITH      MOSUNNY   58  42  55 NW9       30.17S
EAU CLAIRE     NOT AVBL
MENOMONIE      PTCLDY    58  42  55 NW10      30.19S
NEW RICHMOND   PTSUNNY   58  38  47 NW9       30.20S
OSCEOLA        CLOUDY    56  43  59 NW5       30.23S
$$

WIZ003>005-009-010-017-018-151900-
NORTH CENTRAL WISCONSIN

CITY           SKY/WX    TMP DP  RH WIND       PRES   REMARKS
WOODRUFF       LGT RAIN  54  44  70 NW9       30.13S
RHINELANDER    MOSUNNY   57  43  59 W9        30.13S
6HR MIN TEMP:  36; 6HR MAX TEMP:  57;

EAGLE RIVER    PTSUNNY   56  41  55 NW10      30.12S
LAND O LAKES   PTSUNNY   56  43  61 NW12      30.13S
PHILLIPS       MOSUNNY   55  40  56 NW9       30.14S
TOMAHAWK       PTSUNNY   55  42  62 CALM      30.13F
MEDFORD        PTSUNNY   53  44  70 N8        30.15R
MERRILL        CLOUDY    56  43  62 NW5       30.13F
$$

WIZ029-030-035-036-043>047-151900-
CENTRAL WISCONSIN

CITY           SKY/WX    TMP DP  RH WIND       PRES   REMARKS
WAUSAU         CLOUDY    57  42  57 NW5       30.12F
6HR MIN TEMP:  49; 6HR MAX TEMP:  58;

MOSINEE        PTSUNNY   55  46  71 NW7       30.15S
MARSHFIELD     CLOUDY    57  45  64 NW9       30.14F
6HR MIN TEMP:  50; 6HR MAX TEMP:  57;

STEVENS POINT  CLOUDY    53  46  76 CALM      30.14F
WAUPACA        LGT RAIN  56  52  86 SW5       30.14S
WAUTOMA        NOT AVBL
WISC RAPIDS    LGT RAIN  53  50  89 W6        30.16S
6HR MIN TEMP:  50; 6HR MAX TEMP:  53; 6HR PCP:  0.08;

CAMP DOUGLAS   NOT AVBL
$$

WIZ011>013-019>022-031-037>040-048>050-151900-
NORTHEAST WISCONSIN

CITY           SKY/WX    TMP DP  RH WIND       PRES   REMARKS
ANTIGO         CLOUDY    53  42  65 NW8       30.13S
STURGEON BAY   CLOUDY    57  45  62 W6        30.11F
6HR MIN TEMP:  52; 6HR MAX TEMP:  57;

GREEN BAY      CLOUDY    56  49  77 SW5       30.13S
6HR MIN TEMP:  51; 6HR MAX TEMP:  56; 6HR PCP:  0.03;

MANITOWOC      LGT RAIN  55  52  88 CALM      30.13F
APPLETON       DRIZZLE   54  48  82 W7        30.14S
CLINTONVILLE   CLOUDY    55  45  67 SW6       30.13S
OSHKOSH        LGT RAIN  54  50  86 NW5       30.13F
6HR MIN TEMP:  53; 6HR MAX TEMP:  55; 6HR PCP:  0.05;

$$

WIZ032>034-041-042-053>061-151900-
SOUTHWEST WISCONSIN

CITY           SKY/WX    TMP DP  RH WIND       PRES   REMARKS
LA CROSSE      CLOUDY    55  47  74 VRB3      30.18S
6HR MIN TEMP:  52; 6HR MAX TEMP:  55; 6HR PCP:  0.35;

SPARTA         DRIZZLE   52  49  90 W7        30.19R
VIROQUA        CLOUDY    52  51  99 N7        30.17R
BOSCOBEL       LGT RAIN  54  50  86 E6        30.16F FOG
6HR MIN TEMP:  53; 6HR MAX TEMP:  54; 6HR PCP:  0.25;

PRAIRIE DU CHI LGT RAIN  53  48  84 CALM      30.16F
PLATTEVILLE    CLOUDY    52  51  95 N8G20     30.15S
$$

WIZ056-057-062-063-064-067-068-151900-
SOUTH CENTRAL WISCONSIN

CITY           SKY/WX    TMP DP  RH WIND       PRES   REMARKS
BARABOO/DELLS  LGT RAIN  51  48  92 CALM      30.16F
LONE ROCK      NOT AVBL
WATERTOWN      DRIZZLE   52  52  99 CALM      30.12S
MADISON        LGT RAIN  53  51  93 N3        30.14S FOG
6HR MIN TEMP:  52; 6HR MAX TEMP:  55; 6HR PCP:  0.10;

MIDDLETON      CLOUDY    54  52  95 N3        30.15R
MONROE         CLOUDY    55  52  88 N8        30.11S
JANESVILLE     CLOUDY    61  48  63 CALM      30.10S
$$

WIZ051-052-058>065-066-070>072-151900-
SOUTHEAST WISCONSIN

CITY           SKY/WX    TMP DP  RH WIND       PRES   REMARKS
MILWAUKEE      LGT RAIN  57  52  83 NE3       30.11F
6HR MIN TEMP:  54; 6HR MAX TEMP:  57; 6HR PCP:  0.01;

WAUKESHA       PTSUNNY   54  52  94 NE6       30.13
MILWAUKEE/TIMM LGT RAIN  54  52  94 NE7       30.11F
RACINE         CLOUDY    60  52  74 E5        30.11F
6HR MIN TEMP:  53; 6HR MAX TEMP:  63; 6HR PCP:  0.01;

BURLINGTON     CLOUDY    59  51  73 CALM      30.10F
KENOSHA        CLOUDY    60  51  72 E9        30.10F
6HR MIN TEMP:  52; 6HR MAX TEMP:  64;

FOND DU LAC    LGT RAIN  54  49  83 NW6       30.14S
6HR MIN TEMP:  52; 6HR MAX TEMP:  55; 6HR PCP:  0.05;

SHEBOYGAN      LGT RAIN  54  51  90 NW3       30.13F
6HR MIN TEMP:  52; 6HR MAX TEMP:  54; 6HR PCP:  0.14;

WEST BEND      DRIZZLE   54  50  87 N3        30.12F
JUNEAU         RAIN      54  51  91 NW6       30.14S
$$

LSZ147-162-151900-
LAKE SUPERIOR

STATION/POSITION TIME  TEMP    WIND        PRES    WAVE
                       AIR SEA DIR/SP/G            HT/PER
                 (UTC) (F)     (DEG/KT/KT) (MB)    (FT/S)
W MID LAKE BUOY  1650   49 47  270/ 10/ 12 1020.3F   1/ 3
DEVILS ISLAND    1700   51     260/ 12/ 16 1021.3F
PORT WING        1700   54     290/ 13/ 16 1021.7
SAXON HARBOR     1700   54     340/  5/  8 1021.3
$$

LMZ867-665-643>646-151900-
LAKE MICHIGAN

STATION/POSITION TIME  TEMP    WIND        PRES    WAVE
                       AIR SEA DIR/SP/G            HT/PER
                 (UTC) (F)     (DEG/KT/KT) (MB)    (FT/S)
N MID LAKE BUOY  1650   55 59  260/  4/  4 1019.7F   2/ 5
NORTHPORT PIER   1700   56     330/  4/  5 1019.6S
KEWAUNEE LAKESHO 1700   55     280/  4/  7 1019.4S
SHEBOYGAN LAKESH 1700   52 48  340/  3/  3 1020.8S
PORT WASHINGTON  1700   56     340/  1/  2 1020.7R
ATWATER BUOY     1700   57     350/  6/  8 1020.9R
MILWAUKEE LAKESH 1700   56     350/  2/  3   N/A
S MID LAKE BUOY  1650   61 63   CALM  /  2 1020.1R   1/ 3
KENOSHA   LAKESH 1700   59     100/  5/  6 1019.6F
$$

TC  - TEMPERATURE IN CELSIUS
VSB - VISIBILITY IN STATUTE MILES
WCI - WIND CHILL INDEX
HX  - HEAT INDEX



USA.gov is the U.S. government's official web portal to all federal, state and local government web resources and services.